Weather History for KSMX - April, 2014

Change the Weather History Date:

Monday, April 21, 2014

  Actual Average Record
Temperature  
Mean Temperature 63 °F 56 °F  
Max Temperature 78 °F 68 °F 95 °F (2009)
Min Temperature 48 °F 44 °F 30 °F (1920)
Degree Days  
Heating Degree Days 2 9  
Month to date heating degree days 114 205  
Since 1 July heating degree days 1408 2378  
Cooling Degree Days 0 0  
Month to date cooling degree days 2 0  
Year to date cooling degree days 14 2  
Growing Degree Days 13 (Base 50)    
Moisture  
Dew Point 48 °F    
Average Humidity 60    
Maximum Humidity 83    
Minimum Humidity 36    
Precipitation  
Precipitation 0.00 in 0.02 in 0.98 in (1955)
Month to date precipitation 0.72 0.77  
Year to date precipitation 3.88 9.15  
Since 1 July precipitation 4.38  
Sea Level Pressure  
Sea Level Pressure 30.03 in    
Wind  
Wind Speed 5 mph (WNW)    
Max Wind Speed 20 mph    
Max Gust Speed 25 mph    
Visibility 8 miles    
Events      
T = Trace of Precipitation, MM = Missing Value Source: NWS Daily Summary

Daily Weather History Graph

Daily Weather History Graph

Search for Another Location

Airport or City:

Trip Planner

Search our weather history database for the weather conditions in past years. The results will help you decide how hot, cold, wet, or windy it might be!

Date:

Astronomy

Apr. 21, 2014 Rise Set
Actual Time 6:22 AM PDT 7:39 PM PDT
Civil Twilight 5:55 AM PDT 8:05 PM PDT
Nautical Twilight 5:24 AM PDT 8:37 PM PDT
Astronomical Twilight 4:51 AM PDT 9:09 PM PDT
Moon 1:09 AM PDT (4/21) 11:57 AM PDT (4/21)
Length of Visible Light 14h 09m
Length of Day
13h 16m
Waning Gibbous, 56% of the Moon is Illuminated
Apr 21
Waning Gibbous
Apr 22
Last Quarter
Apr 28
New
May 6
First Quarter
May 14
Full

Hourly Weather History & Observations

Time (PDT) Temp. Dew Point Humidity Pressure Visibility Wind Dir Wind Speed Gust Speed Precip Events Conditions
12:51 AM 50.0 °F 42.1 °F 74% 30.06 in 10.0 mi West 3.5 mph - N/A   Clear
1:51 AM 51.1 °F 45.0 °F 80% 30.05 in 9.0 mi Calm Calm - N/A   Clear
2:51 AM 50.0 °F 44.1 °F 80% 30.04 in 10.0 mi Calm Calm - N/A   Clear
3:51 AM 50.0 °F 43.0 °F 77% 30.03 in 10.0 mi ESE 3.5 mph - N/A   Clear
4:51 AM 48.9 °F 42.1 °F 77% 30.02 in 10.0 mi Calm Calm - N/A   Clear
5:51 AM 50.0 °F 42.1 °F 74% 30.02 in 10.0 mi Calm Calm - N/A   Clear
6:51 AM 48.9 °F 42.1 °F 77% 30.04 in 10.0 mi Calm Calm - N/A   Clear
7:51 AM 55.9 °F 46.0 °F 69% 30.05 in 10.0 mi Calm Calm - N/A   Clear
8:51 AM 66.0 °F 44.1 °F 45% 30.04 in 10.0 mi Calm Calm - N/A   Partly Cloudy
9:51 AM 75.0 °F 37.0 °F 25% 30.03 in 10.0 mi Calm Calm - N/A   Scattered Clouds
10:51 AM 75.9 °F 48.0 °F 37% 30.04 in 10.0 mi West 9.2 mph - N/A   Mostly Cloudy
11:51 AM 75.0 °F 48.0 °F 38% 30.06 in 10.0 mi West 6.9 mph - N/A   Clear
12:51 PM 75.9 °F 51.1 °F 42% 30.05 in 10.0 mi NNW 12.7 mph - N/A   Mostly Cloudy
1:51 PM 73.9 °F 51.1 °F 45% 30.04 in 9.0 mi NNW 6.9 mph - N/A   Mostly Cloudy
2:51 PM 77.0 °F 48.9 °F 37% 30.02 in 10.0 mi West 8.1 mph - N/A   Mostly Cloudy
3:20 PM 71.6 °F 51.8 °F 50% 30.02 in 9.0 mi NW 17.3 mph - N/A   Clear
3:51 PM 69.1 °F 53.1 °F 57% 30.01 in 8.0 mi NNW 10.4 mph - N/A   Mostly Cloudy
4:51 PM 69.1 °F 52.0 °F 54% 30.00 in 8.0 mi NW 8.1 mph - N/A   Clear
5:51 PM 66.0 °F 51.1 °F 59% 30.00 in 8.0 mi NW 3.5 mph - N/A   Overcast
6:51 PM 57.9 °F 51.1 °F 78% 30.01 in 6.0 mi WNW 17.3 mph 24.2 mph N/A   Haze
6:55 PM 57.2 °F 51.8 °F 82% 30.00 in 5.0 mi NW 16.1 mph 24.2 mph N/A   Haze
7:11 PM 57.2 °F 51.8 °F 82% 30.01 in 5.0 mi NW 11.5 mph - N/A   Haze
7:26 PM 57.2 °F 51.8 °F 82% 30.01 in 5.0 mi WNW 8.1 mph - N/A   Haze
7:51 PM 57.0 °F 50.0 °F 77% 30.02 in 7.0 mi NW 13.8 mph - N/A   Mostly Cloudy
7:59 PM 57.2 °F 50.0 °F 77% 30.02 in 7.0 mi WNW 10.4 mph - N/A   Mostly Cloudy
8:25 PM 55.4 °F 50.0 °F 82% 30.02 in 7.0 mi WNW 10.4 mph - N/A   Mostly Cloudy
8:33 PM 57.2 °F 48.2 °F 72% 30.01 in 7.0 mi WNW 9.2 mph - N/A   Scattered Clouds
8:51 PM 55.9 °F 48.9 °F 77% 30.02 in 8.0 mi West 5.8 mph - N/A   Clear
9:51 PM 55.9 °F 50.0 °F 80% 30.02 in 7.0 mi ESE 4.6 mph - N/A   Clear
10:51 PM 55.0 °F 48.0 °F 77% 30.02 in 7.0 mi Calm Calm - N/A   Clear
11:51 PM 54.0 °F 46.9 °F 77% 30.03 in 7.0 mi Calm Calm - N/A   Clear